Regional Weather Roundup
Issued by NWS

Home | Current Version | Previous Version | Text Only | Print | Product List | Glossary On
Versions: 1 2 3 4 5 6 7 8 9 10 11 12 13 14 15 16 17 18 19 20 21 22 23 24 25 26 27 28 29 30 31 32 33 34 35 36 37 38 39 40 41 42 43 44 45 46 47 48 49 50
000
ASUS45 KABQ 271010
RWRNM
WEATHER ROUNDUP FOR NEW MEXICO
NATIONAL WEATHER SERVICE ALBUQUERQUE NM
300 AM MST THU NOV 27 2014

NOTE: "FAIR" MEANS FEW OR NO CLOUDS BELOW 12,000 FEET AGL WITH NO
       SIGNIFICANT WEATHER OR OBSTRUCTIONS TO VISION.

      THIS PRODUCT IS RELEASED AS TWO VERSIONS.  ONE VERSION NEAR
      THE TOP OF THE HOUR CONTAINING PRELIMINARY DATA FROM ALBUQUERQUE
      AND OTHER STATIONS.  A FINAL VERSION WITH ADDITIONAL DATA IS
      ISSUED ABOUT 10 MINUTES AFTER THE HOUR.

NMZ501-503-504-510>518-271100-
NORTHWEST PLATEAU/NORTHCENTRAL MOUNTAINS

CITY           SKY/WX    TMP DP  RH WIND       PRES   REMARKS
FARMINGTON     CLEAR     26  18  71 E5        30.47R WCI  20
LOS ALAMOS     PTCLDY    35  21  57 CALM      30.47S
SANTA FE       PTCLDY    34  21  59 N12       30.44S WCI  25
TAOS           PTCLDY    19  16  86 N7        30.49R WCI  10
ANGEL FIRE     FAIR       7   4  84 CALM      30.51S

$$
NMZ402-403-502-505>509-271100-
WESTCENTRAL MOUNTAINS/SOUTHWEST MOUNTAINS

CITY           SKY/WX    TMP DP  RH WIND       PRES   REMARKS
GALLUP         CLEAR     20  11  68 CALM      30.50R
GRANTS         CLEAR     19  12  73 NW7       30.51S WCI  10
SILVER CITY    CLEAR     32  18  55 N8        30.41S WCI  25

$$
NMZ407-409-411-412-271100-
SOUTHERN DESERTS

CITY           SKY/WX    TMP DP  RH WIND       PRES   REMARKS
LORDSBURG      FAIR      30  14  51 E3        30.37S
DEMING         CLEAR     34  17  50 SW3       30.38S
LAS CRUCES     CLEAR     36  18  48 N6        30.38S WCI  31
HOLLOMAN AFB   PTCLDY    34  19  54 E3        30.37R
ALAMOGORDO     PTCLDY    32  18  55 MISG      30.38R
T OR C         CLEAR     44  20  38 N8        30.40R

$$
NMZ519>523-271100-
CENTRAL VALLEYS/CENTRAL HIGHLANDS

CITY           SKY/WX    TMP DP  RH WIND       PRES   REMARKS
ALBUQUERQUE    PTCLDY    38  23  55 E3        30.45R
DOUBLE EAGLE   PTCLDY    34  19  56 NW8       30.45S WCI  27
MORIARTY ARPT  FAIR      25  20  82 NE7       30.45R WCI  17
CLINES CORNERS PTCLDY    33  22  63 NW13      30.41R WCI  24
BELEN          FAIR      30  19  65 NW7       30.44S WCI  23
SOCORRO        FAIR      38  20  48 N12G20    30.41S WCI  31

$$
NMZ524>526-539-540-271100-
SOUTHCENTRAL MOUNTAINS

CITY           SKY/WX    TMP DP  RH WIND       PRES   REMARKS
RUIDOSO        PTCLDY    41  18  38 CALM      30.45R

$$
NMZ527>531-271100-
NORTHEAST HIGHLANDS/NORTHEAST PLAINS

CITY           SKY/WX    TMP DP  RH WIND       PRES   REMARKS
LAS VEGAS      PTCLDY    37  22  54 NW6       30.39F WCI  32
RATON          PTCLDY    28  21  75 N3        30.37S
CLAYTON        CLEAR     31  23  72 SW13      30.36S WCI  21

$$
NMZ532>537-271100-
EASTCENTRAL PLAINS

CITY           SKY/WX    TMP DP  RH WIND       PRES   REMARKS
TUCUMCARI      PTCLDY    27  23  85 CALM      30.39S
CANNON AFB     CLEAR     32  23  71 CALM      30.42R
CLOVIS AIRPORT CLEAR     30  21  69 S6        30.41S WCI  24

$$
NMZ028-029-538-271100-
SOUTHEAST PLAINS

CITY           SKY/WX    TMP DP  RH WIND       PRES   REMARKS
ROSWELL        CLEAR     34  25  69 W3        30.40R
CARLSBAD       CLEAR     38  27  64 S7        30.39S WCI  33
HOBBS          PTCLDY    36  30  80 CALM      30.41S


$$


USA.gov is the U.S. government's official web portal to all federal, state and local government web resources and services.